Change the Weather History Date:

Thursday, April 11, 2013

  Actual Average (KBRL) Record (KBRL)
Temperature  
Mean Temperature 45 °F 52 °F  
Max Temperature 51 °F 63 °F 91 °F (1930)
Min Temperature 39 °F 41 °F 22 °F (1973)
Degree Days  
Heating Degree Days 20 13  
Month to date heating degree days 165  
Since 1 July heating degree days 5271  
Cooling Degree Days 0 1  
Month to date cooling degree days 1  
Year to date cooling degree days 3  
Moisture  
Dew Point 42 °F    
Average Humidity 87    
Maximum Humidity 99    
Minimum Humidity 73    
Precipitation  
Precipitation 0.09 in 0.12 in 0.86 in (1951)
Month to date precipitation 1.17  
Year to date precipitation 6.82  
Sea Level Pressure  
Sea Level Pressure 29.67 in    
Wind  
Wind Speed 11 mph (WSW)    
Max Wind Speed 21 mph    
Max Gust Speed 25 mph    
Visibility 8 miles    
Events Rain    
T = Trace of Precipitation, MM = Missing Value Source: NWS Daily Summary

Daily Weather History Graph

Daily Weather History Graph

Search for Another Location

Airport or City:

Trip Planner

Search our weather history database for the weather conditions in past years. The results will help you decide how hot, cold, wet, or windy it might be!

Date:

Astronomy

Apr. 11, 2013 Rise Set
Actual Time 6:29 AM CDT 7:37 PM CDT
Civil Twilight 6:01 AM CDT 8:06 PM CDT
Nautical Twilight 5:28 AM CDT 8:39 PM CDT
Astronomical Twilight 4:53 AM CDT 9:14 PM CDT
Moon 7:01 AM CDT (4/11) 9:12 PM CDT (4/11)
Length of Visible Light 14h 04m
Length of Day
13h 08m
New Moon, 2% of the Moon is Illuminated
Apr 11
New Moon
Apr 18
First Quarter
Apr 25
Full
May 2
Last Quarter
May 9
New

Hourly Weather History & Observations

Time (CDT) Temp. Windchill Dew Point Humidity Pressure Visibility Wind Dir Wind Speed Gust Speed Precip Events Conditions
12:15 AM 47.8 °F - 47.5 °F 99% 29.65 in 7.0 mi ENE 13.8 mph - N/A   Overcast
12:35 AM 48.2 °F - 47.8 °F 99% 29.65 in 7.0 mi ENE 10.4 mph - N/A   Overcast
12:55 AM 48.6 °F - 48.2 °F 99% 29.67 in 5.0 mi East 8.1 mph - N/A   Overcast
1:15 AM 49.1 °F - 48.6 °F 98% 29.67 in 5.0 mi Calm Calm - N/A   Overcast
1:35 AM 49.1 °F - 48.6 °F 98% 29.68 in 3.0 mi Calm Calm - N/A Rain Rain
1:55 AM 49.1 °F - 48.7 °F 99% 29.68 in 1.5 mi Calm Calm - 0.01 in   Drizzle
2:15 AM 50.0 °F - 49.6 °F 99% 29.68 in 1.8 mi SE 8.1 mph - 0.01 in   Drizzle
2:35 AM 50.2 °F - 50.0 °F 99% 29.67 in 1.8 mi SE 10.4 mph - 0.01 in   Drizzle
2:55 AM 50.0 °F - 49.8 °F 99% 29.67 in 2.0 mi SE 8.1 mph - 0.03 in   Drizzle
3:15 AM 50.0 °F - 49.6 °F 99% 29.65 in 2.0 mi SE 5.8 mph - N/A   Drizzle
3:35 AM 50.0 °F - 49.6 °F 99% 29.64 in 2.0 mi SE 3.5 mph - 0.01 in   Drizzle
3:55 AM 50.2 °F - 50.0 °F 99% 29.64 in 1.8 mi SE 5.8 mph - 0.02 in   Drizzle
4:15 AM 50.9 °F - 50.4 °F 98% 29.65 in 1.5 mi SSE 5.8 mph - N/A   Drizzle
4:35 AM 50.9 °F - 50.5 °F 99% 29.66 in 1.8 mi SSE 8.1 mph - 0.02 in Rain Rain
4:55 AM 51.1 °F - 50.9 °F 99% 29.64 in 2.0 mi SSE 8.1 mph - 0.03 in   Drizzle
5:15 AM 51.1 °F - 50.9 °F 99% 29.64 in 3.0 mi SSW 6.9 mph - N/A   Overcast
5:35 AM 50.4 °F - 50.0 °F 99% 29.64 in 10.0 mi WSW 11.5 mph - N/A   Overcast
5:55 AM 48.9 °F - 48.6 °F 99% 29.64 in 10.0 mi WSW 11.5 mph - N/A   Overcast
6:15 AM 48.2 °F - 47.8 °F 99% 29.64 in 10.0 mi WSW 11.5 mph - N/A   Overcast
6:35 AM 47.8 °F - 47.5 °F 99% 29.65 in 10.0 mi WSW 13.8 mph - N/A   Overcast
6:55 AM 47.7 °F - 47.3 °F 99% 29.67 in 7.0 mi West 15.0 mph - N/A   Overcast
7:15 AM 47.5 °F - 47.3 °F 99% 29.67 in 3.0 mi West 10.4 mph - N/A   Overcast
7:35 AM 46.6 °F - 46.4 °F 99% 29.67 in 10.0 mi West 15.0 mph 18.4 mph N/A   Overcast
7:55 AM 46.8 °F - 46.4 °F 99% 29.67 in 10.0 mi West 12.7 mph - N/A   Overcast
8:15 AM 46.8 °F - 46.4 °F 99% 29.67 in 10.0 mi WSW 11.5 mph - N/A   Overcast
8:35 AM 46.8 °F - 46.4 °F 99% 29.67 in 10.0 mi West 11.5 mph - N/A   Overcast
8:55 AM 46.8 °F - 46.4 °F 99% 29.66 in 10.0 mi West 9.2 mph - N/A   Overcast
9:15 AM 47.1 °F - 46.8 °F 99% 29.67 in 10.0 mi West 11.5 mph - N/A   Overcast
9:35 AM 48.2 °F - 47.8 °F 99% 29.67 in 10.0 mi West 12.7 mph - N/A   Overcast
9:55 AM 49.8 °F - 49.3 °F 98% 29.64 in 10.0 mi West 11.5 mph - N/A   Overcast
10:15 AM 50.2 °F - 48.9 °F 95% 29.65 in 10.0 mi WSW 11.5 mph - N/A   Overcast
10:35 AM 50.0 °F - 45.1 °F 83% 29.65 in 10.0 mi West 13.8 mph - N/A   Overcast
10:55 AM 50.2 °F - 45.1 °F 83% 29.66 in 10.0 mi WSW 15.0 mph - N/A   Overcast
11:15 AM 50.0 °F - 45.3 °F 84% 29.65 in 10.0 mi WSW 12.7 mph - N/A   Overcast
11:35 AM 49.8 °F - 44.6 °F 82% 29.65 in 10.0 mi West 15.0 mph - N/A   Overcast
11:55 AM 50.0 °F - 46.4 °F 87% 29.65 in 7.0 mi WSW 13.8 mph - N/A   Overcast
12:15 PM 49.3 °F - 44.4 °F 83% 29.66 in 10.0 mi WSW 12.7 mph - N/A   Overcast
12:35 PM 50.0 °F - 43.9 °F 79% 29.65 in 10.0 mi SW 12.7 mph - N/A   Overcast
12:55 PM 50.2 °F - 45.0 °F 82% 29.66 in 10.0 mi SW 12.7 mph - N/A   Overcast
1:15 PM 49.1 °F - 43.5 °F 81% 29.66 in 10.0 mi SW 12.7 mph - N/A   Overcast
1:35 PM 47.3 °F - 43.5 °F 87% 29.66 in 5.0 mi WSW 15.0 mph - N/A   Overcast
1:55 PM 47.3 °F - 42.8 °F 84% 29.67 in 10.0 mi WSW 18.4 mph - N/A   Overcast
2:15 PM 46.2 °F 39.5 °F 41.9 °F 85% 29.67 in 7.0 mi SW 16.1 mph 23.0 mph N/A   Overcast
2:35 PM 45.5 °F 38.6 °F 41.4 °F 85% 29.67 in 4.0 mi SW 16.1 mph 21.9 mph N/A   Haze
2:55 PM 46.6 °F - 40.3 °F 79% 29.67 in 10.0 mi SW 18.4 mph 23.0 mph N/A   Overcast
3:15 PM 46.8 °F - 39.0 °F 74% 29.66 in 10.0 mi SW 13.8 mph - N/A   Overcast
3:35 PM 46.0 °F 38.8 °F 38.7 °F 75% 29.67 in 10.0 mi WSW 18.4 mph 24.2 mph N/A   Overcast
3:55 PM 46.4 °F 39.5 °F 38.5 °F 74% 29.67 in 10.0 mi WSW 17.3 mph 23.0 mph N/A   Overcast
4:15 PM 44.6 °F 37.2 °F 37.9 °F 77% 29.67 in 10.0 mi WSW 17.3 mph 20.7 mph N/A   Overcast
4:35 PM 43.9 °F 35.9 °F 37.0 °F 77% 29.67 in 10.0 mi WSW 18.4 mph 25.3 mph N/A   Overcast
4:55 PM 43.7 °F 35.4 °F 36.3 °F 75% 29.67 in 10.0 mi WSW 19.6 mph - N/A   Overcast
5:15 PM 43.7 °F 36.3 °F 36.3 °F 75% 29.67 in 10.0 mi WSW 16.1 mph - N/A   Overcast
5:35 PM 43.3 °F 35.8 °F 36.0 °F 75% 29.67 in 10.0 mi WSW 16.1 mph - N/A   Overcast
5:55 PM 43.5 °F 36.7 °F 36.1 °F 75% 29.67 in 10.0 mi WSW 13.8 mph - N/A   Overcast
6:15 PM 43.2 °F 35.6 °F 35.6 °F 75% 29.67 in 10.0 mi West 16.1 mph 21.9 mph N/A   Overcast
6:35 PM 43.2 °F 34.7 °F 35.8 °F 75% 29.68 in 10.0 mi WSW 19.6 mph - N/A   Overcast
6:55 PM 42.8 °F 35.1 °F 35.8 °F 76% 29.69 in 10.0 mi WSW 16.1 mph - N/A   Overcast
7:15 PM 42.4 °F 35.7 °F 35.8 °F 77% 29.68 in 10.0 mi WSW 12.7 mph - N/A   Overcast
7:35 PM 42.1 °F 33.1 °F 34.9 °F 76% 29.67 in 10.0 mi WSW 20.7 mph 24.2 mph N/A   Overcast
7:55 PM 41.5 °F 33.2 °F 34.2 °F 75% 29.68 in 10.0 mi WSW 17.3 mph 24.2 mph N/A   Overcast
8:15 PM 41.0 °F 32.8 °F 34.5 °F 78% 29.68 in 10.0 mi WSW 16.1 mph - N/A   Overcast
8:35 PM 40.8 °F 32.6 °F 33.8 °F 76% 29.68 in 10.0 mi WSW 16.1 mph - N/A   Overcast
8:55 PM 40.5 °F 32.5 °F 32.9 °F 74% 29.68 in 10.0 mi WSW 15.0 mph 24.2 mph N/A   Overcast
9:15 PM 40.3 °F 31.9 °F 32.7 °F 74% 29.69 in 10.0 mi WSW 16.1 mph - N/A   Overcast
9:35 PM 40.1 °F 32.7 °F 32.5 °F 74% 29.70 in 10.0 mi WSW 12.7 mph 20.7 mph N/A   Overcast
9:55 PM 40.1 °F 32.7 °F 32.5 °F 74% 29.70 in 10.0 mi WSW 12.7 mph - N/A   Overcast
10:15 PM 40.1 °F 32.7 °F 32.2 °F 73% 29.70 in 10.0 mi WSW 12.7 mph - N/A   Overcast
10:35 PM 39.9 °F 32.5 °F 32.2 °F 74% 29.70 in 10.0 mi WSW 12.7 mph - N/A   Overcast
10:55 PM 39.7 °F 33.2 °F 32.7 °F 76% 29.70 in 10.0 mi WSW 10.4 mph - N/A   Overcast
11:15 PM 39.6 °F 33.0 °F 32.4 °F 75% 29.70 in 10.0 mi WSW 10.4 mph - N/A   Overcast
11:35 PM 39.6 °F 33.5 °F 32.4 °F 75% 29.70 in 10.0 mi WSW 9.2 mph - N/A   Overcast
11:55 PM 39.7 °F 32.3 °F 32.2 °F 74% 29.70 in 10.0 mi WSW 12.7 mph 17.3 mph N/A   Overcast